owner,sensor,date,latitude,longitude,vertical_datum,sea_water_temperature,qcFlag
Amerada Hess,ioos:station:wmo:42907:1,2020-10-01T00:03:00Z,27.1318,-90.3386,20.4,27.9,11111222
Amerada Hess,ioos:station:wmo:42907:1,2020-10-01T00:13:00Z,27.1318,-90.3386,20.5,27.8,11111222
Amerada Hess,ioos:station:wmo:42907:1,2020-10-01T00:23:00Z,27.1318,-90.3386,20.6,27.8,11111222
Amerada Hess,ioos:station:wmo:42907:1,2020-10-01T00:33:00Z,27.1318,-90.3386,20.5,27.9,11111222
Amerada Hess,ioos:station:wmo:42907:1,2020-10-01T00:43:00Z,27.1318,-90.3386,20.5,27.9,11111222
Amerada Hess,ioos:station:wmo:42907:1,2020-10-01T00:53:00Z,27.1318,-90.3386,20.6,27.9,11111222
Amerada Hess,ioos:station:wmo:42907:1,2020-10-01T01:03:00Z,27.1318,-90.3386,20.5,27.8,11111222
Amerada Hess,ioos:station:wmo:42907:1,2020-10-01T01:13:00Z,27.1318,-90.3386,20.5,27.8,11111222
Amerada Hess,ioos:station:wmo:42907:1,2020-10-01T01:23:00Z,27.1318,-90.3386,20.6,27.8,11111222
Amerada Hess,ioos:station:wmo:42907:1,2020-10-01T01:33:00Z,27.1318,-90.3386,20.6,27.8,11111222
Amerada Hess,ioos:station:wmo:42907:1,2020-10-01T01:43:00Z,27.1318,-90.3386,20.6,27.8,11111222
Amerada Hess,ioos:station:wmo:42907:1,2020-10-01T01:53:00Z,27.1318,-90.3386,20.4,27.8,11111222
Amerada Hess,ioos:station:wmo:42907:1,2020-10-01T02:03:00Z,27.1318,-90.3386,20.3,27.8,11111222
Amerada Hess,ioos:station:wmo:42907:1,2020-10-01T02:13:00Z,27.1318,-90.3386,20.3,27.8,11111222
Amerada Hess,ioos:station:wmo:42907:1,2020-10-01T02:23:00Z,27.1318,-90.3386,20.4,27.8,11111222
Amerada Hess,ioos:station:wmo:42907:1,2020-10-01T02:33:00Z,27.1318,-90.3386,20.2,27.8,11111222
Amerada Hess,ioos:station:wmo:42907:1,2020-10-01T02:43:00Z,27.1318,-90.3386,20.2,27.8,11111222
Amerada Hess,ioos:station:wmo:42907:1,2020-10-01T02:53:00Z,27.1318,-90.3386,20.3,27.8,11111222
Amerada Hess,ioos:station:wmo:42907:1,2020-10-01T03:03:00Z,27.1318,-90.3386,20.3,27.8,11111222
Amerada Hess,ioos:station:wmo:42907:1,2020-10-01T03:13:00Z,27.1318,-90.3386,20.4,27.8,11111222
Amerada Hess,ioos:station:wmo:42907:1,2020-10-01T03:23:00Z,27.1318,-90.3386,20.4,27.8,11111222
Amerada Hess,ioos:station:wmo:42907:1,2020-10-01T03:33:00Z,27.1318,-90.3386,20.4,27.8,11111222
Amerada Hess,ioos:station:wmo:42907:1,2020-10-01T03:43:00Z,27.1318,-90.3386,20.4,27.8,11111222
Amerada Hess,ioos:station:wmo:42907:1,2020-10-01T03:53:00Z,27.1318,-90.3386,20.4,27.8,11111222
Amerada Hess,ioos:station:wmo:42907:1,2020-10-01T04:03:00Z,27.1318,-90.3386,20.4,27.8,11111222
Amerada Hess,ioos:station:wmo:42907:1,2020-10-01T04:13:00Z,27.1318,-90.3386,20.4,27.8,11111222
Amerada Hess,ioos:station:wmo:42907:1,2020-10-01T23:56:00Z,27.1318,-90.3386,20.4,27.8,11111222
Amerada Hess,ioos:station:wmo:42907:1,2020-10-02T00:26:00Z,27.1318,-90.3386,20.6,27.8,11111222
Amerada Hess,ioos:station:wmo:42907:1,2020-10-02T00:46:00Z,27.1318,-90.3386,20.7,27.8,11111222
Amerada Hess,ioos:station:wmo:42907:1,2020-10-02T00:56:00Z,27.1318,-90.3386,20.7,27.8,11111222
Amerada Hess,ioos:station:wmo:42907:1,2020-10-02T01:16:00Z,27.1318,-90.3386,20.4,27.8,11111222
Amerada Hess,ioos:station:wmo:42907:1,2020-10-02T01:26:00Z,27.1318,-90.3386,20.4,27.8,11111222
Amerada Hess,ioos:station:wmo:42907:1,2020-10-02T01:36:00Z,27.1318,-90.3386,20.3,27.8,11111222
Amerada Hess,ioos:station:wmo:42907:1,2020-10-02T01:46:00Z,27.1318,-90.3386,20.3,27.8,11111222
Amerada Hess,ioos:station:wmo:42907:1,2020-10-02T01:56:00Z,27.1318,-90.3386,20.3,27.8,11111222
Amerada Hess,ioos:station:wmo:42907:1,2020-10-02T02:06:00Z,27.1318,-90.3386,20.3,27.8,11111222
Amerada Hess,ioos:station:wmo:42907:1,2020-10-02T02:16:00Z,27.1318,-90.3386,20.3,27.8,11111222
Amerada Hess,ioos:station:wmo:42907:1,2020-10-02T02:46:00Z,27.1318,-90.3386,20.3,27.8,11111222
Amerada Hess,ioos:station:wmo:42907:1,2020-10-02T02:56:00Z,27.1318,-90.3386,20.3,27.8,11111222
Amerada Hess,ioos:station:wmo:42907:1,2020-10-02T03:06:00Z,27.1318,-90.3386,20.3,27.8,11111222
Amerada Hess,ioos:station:wmo:42907:1,2020-10-02T03:16:00Z,27.1318,-90.3386,20.3,27.8,11111222
Amerada Hess,ioos:station:wmo:42907:1,2020-10-02T03:26:00Z,27.1318,-90.3386,20.3,27.8,11111222
Amerada Hess,ioos:station:wmo:42907:1,2020-10-02T03:36:00Z,27.1318,-90.3386,20.4,27.8,11111222
Amerada Hess,ioos:station:wmo:42907:1,2020-10-02T03:46:00Z,27.1318,-90.3386,20.6,27.8,11111222
Amerada Hess,ioos:station:wmo:42907:1,2020-10-02T03:56:00Z,27.1318,-90.3386,20.4,27.8,11111222
Amerada Hess,ioos:station:wmo:42907:1,2020-10-02T04:06:00Z,27.1318,-90.3386,20.5,27.8,11111222
Amerada Hess,ioos:station:wmo:42907:1,2020-10-02T04:16:00Z,27.1318,-90.3386,20.5,27.8,11111222
Amerada Hess,ioos:station:wmo:42907:1,2020-10-02T04:27:00Z,27.1318,-90.3386,20.5,27.8,11111222
Amerada Hess,ioos:station:wmo:42907:1,2020-10-02T04:37:00Z,27.1318,-90.3386,20.4,27.8,11111222
Amerada Hess,ioos:station:wmo:42907:1,2020-10-02T05:07:00Z,27.1318,-90.3386,20.3,27.8,11111222
Amerada Hess,ioos:station:wmo:42907:1,2020-10-02T05:17:00Z,27.1318,-90.3386,20.3,27.8,11111222
Amerada Hess,ioos:station:wmo:42907:1,2020-10-02T05:27:00Z,27.1318,-90.3386,20.3,27.7,11111222
Amerada Hess,ioos:station:wmo:42907:1,2020-10-02T05:37:00Z,27.1318,-90.3386,20.3,27.8,11111222
Amerada Hess,ioos:station:wmo:42907:1,2020-10-02T05:47:00Z,27.1318,-90.3386,20.3,27.8,11111222
Amerada Hess,ioos:station:wmo:42907:1,2020-10-02T06:17:00Z,27.1318,-90.3386,20.4,27.8,11111222
Amerada Hess,ioos:station:wmo:42907:1,2020-10-02T06:27:00Z,27.1318,-90.3386,20.3,27.8,11111222
Amerada Hess,ioos:station:wmo:42907:1,2020-10-02T06:37:00Z,27.1318,-90.3386,20.4,27.8,11111222
Amerada Hess,ioos:station:wmo:42907:1,2020-10-02T06:47:00Z,27.1318,-90.3386,20.4,27.8,11111222
Amerada Hess,ioos:station:wmo:42907:1,2020-10-02T06:57:00Z,27.1318,-90.3386,20.4,27.8,11111222
Amerada Hess,ioos:station:wmo:42907:1,2020-10-02T07:07:00Z,27.1318,-90.3386,20.4,27.7,11111222
Amerada Hess,ioos:station:wmo:42907:1,2020-10-02T07:17:00Z,27.1318,-90.3386,20.4,27.7,11111222
Amerada Hess,ioos:station:wmo:42907:1,2020-10-02T07:27:00Z,27.1318,-90.3386,20.3,27.7,11111222
Amerada Hess,ioos:station:wmo:42907:1,2020-10-02T07:37:00Z,27.1318,-90.3386,20.5,27.8,11111222
Amerada Hess,ioos:station:wmo:42907:1,2020-10-02T07:47:00Z,27.1318,-90.3386,20.4,27.7,11111222
Amerada Hess,ioos:station:wmo:42907:1,2020-10-02T07:57:00Z,27.1318,-90.3386,20.4,27.7,11111222
Amerada Hess,ioos:station:wmo:42907:1,2020-10-02T08:07:00Z,27.1318,-90.3386,20.4,27.7,11111222
Amerada Hess,ioos:station:wmo:42907:1,2020-10-02T08:17:00Z,27.1318,-90.3386,20.4,27.7,11111222
Amerada Hess,ioos:station:wmo:42907:1,2020-10-02T08:27:00Z,27.1318,-90.3386,20.4,27.7,11111222
Amerada Hess,ioos:station:wmo:42907:1,2020-10-02T08:37:00Z,27.1318,-90.3386,20.3,27.7,11111222
Amerada Hess,ioos:station:wmo:42907:1,2020-10-02T08:47:00Z,27.1318,-90.3386,20.3,27.7,11111222
Amerada Hess,ioos:station:wmo:42907:1,2020-10-02T08:57:00Z,27.1318,-90.3386,20.4,27.6,11111222
Amerada Hess,ioos:station:wmo:42907:1,2020-10-02T09:07:00Z,27.1318,-90.3386,20.5,27.6,11111222
Amerada Hess,ioos:station:wmo:42907:1,2020-10-02T09:17:00Z,27.1318,-90.3386,20.2,27.6,11111222
Amerada Hess,ioos:station:wmo:42907:1,2020-10-02T09:27:00Z,27.1318,-90.3386,20.5,27.6,11111222
Amerada Hess,ioos:station:wmo:42907:1,2020-10-02T09:37:00Z,27.1318,-90.3386,20.4,27.6,11111222
Amerada Hess,ioos:station:wmo:42907:1,2020-10-02T09:47:00Z,27.1318,-90.3386,20.4,27.6,11111222
Amerada Hess,ioos:station:wmo:42907:1,2020-10-02T09:57:00Z,27.1318,-90.3386,20.4,27.6,11111222
Amerada Hess,ioos:station:wmo:42907:1,2020-10-02T10:07:00Z,27.1318,-90.3386,20.4,27.6,11111222
Amerada Hess,ioos:station:wmo:42907:1,2020-10-02T10:17:00Z,27.1318,-90.3386,20.5,27.6,11111222
Amerada Hess,ioos:station:wmo:42907:1,2020-10-02T10:27:00Z,27.1318,-90.3386,20.5,27.6,11111222
Amerada Hess,ioos:station:wmo:42907:1,2020-10-02T10:37:00Z,27.1318,-90.3386,20.5,27.6,11111222
Amerada Hess,ioos:station:wmo:42907:1,2020-10-02T10:47:00Z,27.1318,-90.3386,20.4,27.6,11111222
Amerada Hess,ioos:station:wmo:42907:1,2020-10-02T10:57:00Z,27.1318,-90.3386,20.3,27.6,11111222
Amerada Hess,ioos:station:wmo:42907:1,2020-10-02T11:07:00Z,27.1318,-90.3386,20.4,27.6,11111222
Amerada Hess,ioos:station:wmo:42907:1,2020-10-02T11:17:00Z,27.1318,-90.3386,20.3,27.7,11111222
Amerada Hess,ioos:station:wmo:42907:1,2020-10-02T11:27:00Z,27.1318,-90.3386,20.4,27.7,11111222
Amerada Hess,ioos:station:wmo:42907:1,2020-10-02T11:37:00Z,27.1318,-90.3386,20.4,27.7,11111222
Amerada Hess,ioos:station:wmo:42907:1,2020-10-02T11:48:00Z,27.1318,-90.3386,20.4,27.6,11111222
Amerada Hess,ioos:station:wmo:42907:1,2020-10-02T11:58:00Z,27.1318,-90.3386,20.4,27.7,11111222
Amerada Hess,ioos:station:wmo:42907:1,2020-10-02T12:08:00Z,27.1318,-90.3386,20.4,27.6,11111222
Amerada Hess,ioos:station:wmo:42907:1,2020-10-02T12:18:00Z,27.1318,-90.3386,20.3,27.6,11111222
Amerada Hess,ioos:station:wmo:42907:1,2020-10-02T12:28:00Z,27.1318,-90.3386,20.3,27.6,11111222
Amerada Hess,ioos:station:wmo:42907:1,2020-10-02T12:38:00Z,27.1318,-90.3386,20.4,27.6,11111222
Amerada Hess,ioos:station:wmo:42907:1,2020-10-02T12:48:00Z,27.1318,-90.3386,20.4,27.6,11111222
Amerada Hess,ioos:station:wmo:42907:1,2020-10-02T12:58:00Z,27.1318,-90.3386,20.4,27.6,11111222
Amerada Hess,ioos:station:wmo:42907:1,2020-10-02T13:08:00Z,27.1318,-90.3386,20.2,27.6,11111222
Amerada Hess,ioos:station:wmo:42907:1,2020-10-02T13:18:00Z,27.1318,-90.3386,20.2,27.6,11111222
Amerada Hess,ioos:station:wmo:42907:1,2020-10-02T13:28:00Z,27.1318,-90.3386,20.4,27.6,11111222
Amerada Hess,ioos:station:wmo:42907:1,2020-10-02T13:38:00Z,27.1318,-90.3386,20.4,27.6,11111222
Amerada Hess,ioos:station:wmo:42907:1,2020-10-02T13:48:00Z,27.1318,-90.3386,20.5,27.7,11111222
Amerada Hess,ioos:station:wmo:42907:1,2020-10-02T13:58:00Z,27.1318,-90.3386,20.4,27.7,11111222
Amerada Hess,ioos:station:wmo:42907:1,2020-10-02T14:08:00Z,27.1318,-90.3386,20.4,27.6,11111222
Amerada Hess,ioos:station:wmo:42907:1,2020-10-02T14:18:00Z,27.1318,-90.3386,20.4,27.6,11111222
Amerada Hess,ioos:station:wmo:42907:1,2020-10-02T14:28:00Z,27.1318,-90.3386,20.4,27.6,11111222
Amerada Hess,ioos:station:wmo:42907:1,2020-10-02T14:38:00Z,27.1318,-90.3386,20.5,27.6,11111222
Amerada Hess,ioos:station:wmo:42907:1,2020-10-02T14:48:00Z,27.1318,-90.3386,20.3,27.6,11111222
Amerada Hess,ioos:station:wmo:42907:1,2020-10-02T14:58:00Z,27.1318,-90.3386,20.4,27.6,11111222
Amerada Hess,ioos:station:wmo:42907:1,2020-10-02T15:08:00Z,27.1318,-90.3386,20.4,27.6,11111222
Amerada Hess,ioos:station:wmo:42907:1,2020-10-02T15:28:00Z,27.1318,-90.3386,20.3,27.6,11111222
Amerada Hess,ioos:station:wmo:42907:1,2020-10-02T15:38:00Z,27.1318,-90.3386,20.4,27.6,11111222
Amerada Hess,ioos:station:wmo:42907:1,2020-10-02T15:48:00Z,27.1318,-90.3386,20.4,27.6,11111222
Amerada Hess,ioos:station:wmo:42907:1,2020-10-02T15:58:00Z,27.1318,-90.3386,20.3,27.6,11111222
Amerada Hess,ioos:station:wmo:42907:1,2020-10-02T16:08:00Z,27.1318,-90.3386,20.3,27.6,11111222
Amerada Hess,ioos:station:wmo:42907:1,2020-10-02T16:18:00Z,27.1318,-90.3386,20.3,27.6,11111222
Amerada Hess,ioos:station:wmo:42907:1,2020-10-02T16:28:00Z,27.1318,-90.3386,20.4,27.6,11111222
Amerada Hess,ioos:station:wmo:42907:1,2020-10-02T16:38:00Z,27.1318,-90.3386,20.3,27.6,11111222
Amerada Hess,ioos:station:wmo:42907:1,2020-10-02T16:48:00Z,27.1318,-90.3386,20.4,27.6,11111222
Amerada Hess,ioos:station:wmo:42907:1,2020-10-02T16:58:00Z,27.1318,-90.3386,20.4,27.6,11111222
Amerada Hess,ioos:station:wmo:42907:1,2020-10-02T17:08:00Z,27.1318,-90.3386,20.4,27.6,11111222
Amerada Hess,ioos:station:wmo:42907:1,2020-10-02T17:18:00Z,27.1318,-90.3386,20.4,27.6,11111222
Amerada Hess,ioos:station:wmo:42907:1,2020-10-02T17:28:00Z,27.1318,-90.3386,20.3,27.6,11111222
Amerada Hess,ioos:station:wmo:42907:1,2020-10-02T17:38:00Z,27.1318,-90.3386,20.3,27.6,11111222
Amerada Hess,ioos:station:wmo:42907:1,2020-10-02T17:48:00Z,27.1318,-90.3386,20.3,27.6,11111222
Amerada Hess,ioos:station:wmo:42907:1,2020-10-02T17:58:00Z,27.1318,-90.3386,20.3,27.6,11111222
Amerada Hess,ioos:station:wmo:42907:1,2020-10-02T18:08:00Z,27.1318,-90.3386,20.5,27.6,11111222
Amerada Hess,ioos:station:wmo:42907:1,2020-10-02T18:18:00Z,27.1318,-90.3386,20.4,27.6,11111222
Amerada Hess,ioos:station:wmo:42907:1,2020-10-02T18:28:00Z,27.1318,-90.3386,20.5,27.6,11111222
Amerada Hess,ioos:station:wmo:42907:1,2020-10-02T18:38:00Z,27.1318,-90.3386,20.4,27.6,11111222
Amerada Hess,ioos:station:wmo:42907:1,2020-10-02T18:48:00Z,27.1318,-90.3386,20.4,27.6,11111222
Amerada Hess,ioos:station:wmo:42907:1,2020-10-02T18:59:00Z,27.1318,-90.3386,20.4,27.6,11111222
Amerada Hess,ioos:station:wmo:42907:1,2020-10-02T19:09:00Z,27.1318,-90.3386,20.4,27.6,11111222
Amerada Hess,ioos:station:wmo:42907:1,2020-10-02T19:19:00Z,27.1318,-90.3386,20.4,27.6,11111222
Amerada Hess,ioos:station:wmo:42907:1,2020-10-02T19:29:00Z,27.1318,-90.3386,20.5,27.6,11111222
Amerada Hess,ioos:station:wmo:42907:1,2020-10-02T19:39:00Z,27.1318,-90.3386,20.5,27.6,11111222
Amerada Hess,ioos:station:wmo:42907:1,2020-10-02T19:49:00Z,27.1318,-90.3386,20.5,27.6,11111222
Amerada Hess,ioos:station:wmo:42907:1,2020-10-02T19:59:00Z,27.1318,-90.3386,20.5,27.6,11111222
Amerada Hess,ioos:station:wmo:42907:1,2020-10-02T20:09:00Z,27.1318,-90.3386,20.4,27.6,11111222
Amerada Hess,ioos:station:wmo:42907:1,2020-10-02T20:19:00Z,27.1318,-90.3386,20.4,27.6,11111222
Amerada Hess,ioos:station:wmo:42907:1,2020-10-02T20:29:00Z,27.1318,-90.3386,20.2,27.6,11111222
Amerada Hess,ioos:station:wmo:42907:1,2020-10-02T20:39:00Z,27.1318,-90.3386,20.3,27.6,11111222
Amerada Hess,ioos:station:wmo:42907:1,2020-10-02T20:49:00Z,27.1318,-90.3386,20.5,27.6,11111222
Amerada Hess,ioos:station:wmo:42907:1,2020-10-02T20:59:00Z,27.1318,-90.3386,20.6,27.6,11111222
Amerada Hess,ioos:station:wmo:42907:1,2020-10-02T21:09:00Z,27.1318,-90.3386,20.6,27.6,11111222
Amerada Hess,ioos:station:wmo:42907:1,2020-10-02T21:19:00Z,27.1318,-90.3386,20.5,27.6,11111222
Amerada Hess,ioos:station:wmo:42907:1,2020-10-02T21:29:00Z,27.1318,-90.3386,20.4,27.6,11111222
Amerada Hess,ioos:station:wmo:42907:1,2020-10-02T21:39:00Z,27.1318,-90.3386,20.5,27.6,11111222
Amerada Hess,ioos:station:wmo:42907:1,2020-10-02T21:49:00Z,27.1318,-90.3386,20.6,27.6,11111222
Amerada Hess,ioos:station:wmo:42907:1,2020-10-02T21:59:00Z,27.1318,-90.3386,20.4,27.6,11111222
Amerada Hess,ioos:station:wmo:42907:1,2020-10-02T22:09:00Z,27.1318,-90.3386,20.5,27.6,11111222
Amerada Hess,ioos:station:wmo:42907:1,2020-10-02T22:19:00Z,27.1318,-90.3386,20.3,27.6,11111222
Amerada Hess,ioos:station:wmo:42907:1,2020-10-02T22:29:00Z,27.1318,-90.3386,20.5,27.6,11111222
Amerada Hess,ioos:station:wmo:42907:1,2020-10-02T22:39:00Z,27.1318,-90.3386,20.7,27.6,11111222
Amerada Hess,ioos:station:wmo:42907:1,2020-10-02T22:49:00Z,27.1318,-90.3386,20.5,27.6,11111222
Amerada Hess,ioos:station:wmo:42907:1,2020-10-02T22:59:00Z,27.1318,-90.3386,20.5,27.6,11111222
Amerada Hess,ioos:station:wmo:42907:1,2020-10-02T23:19:00Z,27.1318,-90.3386,20.5,27.6,11111222
Amerada Hess,ioos:station:wmo:42907:1,2020-10-02T23:29:00Z,27.1318,-90.3386,20.5,27.6,11111222
Amerada Hess,ioos:station:wmo:42907:1,2020-10-02T23:39:00Z,27.1318,-90.3386,20.5,27.6,11111222
Amerada Hess,ioos:station:wmo:42907:1,2020-10-02T23:49:00Z,27.1318,-90.3386,20.5,27.6,11111222
Amerada Hess,ioos:station:wmo:42907:1,2020-10-02T23:59:00Z,27.1318,-90.3386,20.4,27.6,11111222
Amerada Hess,ioos:station:wmo:42907:1,2020-10-03T00:09:00Z,27.1318,-90.3386,20.3,27.6,11111222
Amerada Hess,ioos:station:wmo:42907:1,2020-10-03T00:19:00Z,27.1318,-90.3386,20.3,27.6,11111222
Amerada Hess,ioos:station:wmo:42907:1,2020-10-03T00:29:00Z,27.1318,-90.3386,20.1,27.6,11111222
Amerada Hess,ioos:station:wmo:42907:1,2020-10-03T00:59:00Z,27.1318,-90.3386,20.0,27.6,11111222
Amerada Hess,ioos:station:wmo:42907:1,2020-10-03T01:19:00Z,27.1318,-90.3386,20.3,27.6,11111222
Amerada Hess,ioos:station:wmo:42907:1,2020-10-03T01:29:00Z,27.1318,-90.3386,20.3,27.6,11111222
Amerada Hess,ioos:station:wmo:42907:1,2020-10-03T01:49:00Z,27.1318,-90.3386,20.2,27.6,11111222
Amerada Hess,ioos:station:wmo:42907:1,2020-10-03T01:59:00Z,27.1318,-90.3386,20.2,27.6,11111222
Amerada Hess,ioos:station:wmo:42907:1,2020-10-03T02:09:00Z,27.1318,-90.3386,20.2,27.6,11111222
Amerada Hess,ioos:station:wmo:42907:1,2020-10-03T02:20:00Z,27.1318,-90.3386,20.3,27.6,11111222
Amerada Hess,ioos:station:wmo:42907:1,2020-10-03T02:30:00Z,27.1318,-90.3386,20.4,27.6,11111222
Amerada Hess,ioos:station:wmo:42907:1,2020-10-03T02:40:00Z,27.1318,-90.3386,20.4,27.6,11111222
Amerada Hess,ioos:station:wmo:42907:1,2020-10-03T02:50:00Z,27.1318,-90.3386,20.3,27.6,11111222
Amerada Hess,ioos:station:wmo:42907:1,2020-10-03T03:00:00Z,27.1318,-90.3386,20.3,27.6,11111222
Amerada Hess,ioos:station:wmo:42907:1,2020-10-03T03:10:00Z,27.1318,-90.3386,20.3,27.6,11111222
Amerada Hess,ioos:station:wmo:42907:1,2020-10-03T03:20:00Z,27.1318,-90.3386,20.4,27.6,11111222
Amerada Hess,ioos:station:wmo:42907:1,2020-10-03T03:30:00Z,27.1318,-90.3386,20.3,27.6,11111222
Amerada Hess,ioos:station:wmo:42907:1,2020-10-03T03:40:00Z,27.1318,-90.3386,20.3,27.6,11111222
Amerada Hess,ioos:station:wmo:42907:1,2020-10-03T03:50:00Z,27.1318,-90.3386,20.3,27.6,11111222
Amerada Hess,ioos:station:wmo:42907:1,2020-10-03T04:00:00Z,27.1318,-90.3386,20.4,27.5,11111222
Amerada Hess,ioos:station:wmo:42907:1,2020-10-03T04:10:00Z,27.1318,-90.3386,20.3,27.5,11111222
Amerada Hess,ioos:station:wmo:42907:1,2020-10-03T04:20:00Z,27.1318,-90.3386,20.3,27.5,11111222
Amerada Hess,ioos:station:wmo:42907:1,2020-10-03T04:30:00Z,27.1318,-90.3386,20.3,27.5,11111222
Amerada Hess,ioos:station:wmo:42907:1,2020-10-03T04:40:00Z,27.1318,-90.3386,20.3,27.5,11111222
Amerada Hess,ioos:station:wmo:42907:1,2020-10-03T04:50:00Z,27.1318,-90.3386,20.2,27.5,11111222
Amerada Hess,ioos:station:wmo:42907:1,2020-10-03T05:00:00Z,27.1318,-90.3386,20.3,27.5,11111222
Amerada Hess,ioos:station:wmo:42907:1,2020-10-03T05:10:00Z,27.1318,-90.3386,20.3,27.5,11111222
Amerada Hess,ioos:station:wmo:42907:1,2020-10-03T05:20:00Z,27.1318,-90.3386,20.4,27.5,11111222
Amerada Hess,ioos:station:wmo:42907:1,2020-10-03T05:30:00Z,27.1318,-90.3386,20.4,27.5,11111222
Amerada Hess,ioos:station:wmo:42907:1,2020-10-03T05:40:00Z,27.1318,-90.3386,20.4,27.4,11111222
Amerada Hess,ioos:station:wmo:42907:1,2020-10-03T05:50:00Z,27.1318,-90.3386,20.6,27.4,11111222
Amerada Hess,ioos:station:wmo:42907:1,2020-10-03T06:00:00Z,27.1318,-90.3386,20.4,27.5,11111222
Amerada Hess,ioos:station:wmo:42907:1,2020-10-03T06:10:00Z,27.1318,-90.3386,20.3,27.4,11111222
Amerada Hess,ioos:station:wmo:42907:1,2020-10-03T06:20:00Z,27.1318,-90.3386,20.3,27.4,11111222
Amerada Hess,ioos:station:wmo:42907:1,2020-10-03T06:30:00Z,27.1318,-90.3386,20.3,27.4,11111222
Amerada Hess,ioos:station:wmo:42907:1,2020-10-03T06:40:00Z,27.1318,-90.3386,20.3,27.4,11111222
Amerada Hess,ioos:station:wmo:42907:1,2020-10-03T06:50:00Z,27.1318,-90.3386,20.6,27.4,11111222
Amerada Hess,ioos:station:wmo:42907:1,2020-10-03T07:00:00Z,27.1318,-90.3386,20.5,27.4,11111222
Amerada Hess,ioos:station:wmo:42907:1,2020-10-03T07:10:00Z,27.1318,-90.3386,20.3,27.4,11111222
Amerada Hess,ioos:station:wmo:42907:1,2020-10-03T07:20:00Z,27.1318,-90.3386,20.5,27.4,11111222
Amerada Hess,ioos:station:wmo:42907:1,2020-10-03T07:30:00Z,27.1318,-90.3386,20.5,27.4,11111222
Amerada Hess,ioos:station:wmo:42907:1,2020-10-03T07:40:00Z,27.1318,-90.3386,20.7,27.4,11111222
Amerada Hess,ioos:station:wmo:42907:1,2020-10-03T07:50:00Z,27.1318,-90.3386,20.8,27.4,11111222
Amerada Hess,ioos:station:wmo:42907:1,2020-10-03T08:00:00Z,27.1318,-90.3386,20.4,27.4,11111222
Amerada Hess,ioos:station:wmo:42907:1,2020-10-03T08:10:00Z,27.1318,-90.3386,20.3,27.4,11111222
Amerada Hess,ioos:station:wmo:42907:1,2020-10-03T08:20:00Z,27.1318,-90.3386,20.2,27.4,11111222
Amerada Hess,ioos:station:wmo:42907:1,2020-10-03T08:30:00Z,27.1318,-90.3386,20.2,27.3,11111222
Amerada Hess,ioos:station:wmo:42907:1,2020-10-03T08:40:00Z,27.1318,-90.3386,20.2,27.3,11111222
Amerada Hess,ioos:station:wmo:42907:1,2020-10-03T08:50:00Z,27.1318,-90.3386,20.2,27.4,11111222
Amerada Hess,ioos:station:wmo:42907:1,2020-10-03T09:00:00Z,27.1318,-90.3386,20.2,27.4,11111222
Amerada Hess,ioos:station:wmo:42907:1,2020-10-03T09:20:00Z,27.1318,-90.3386,20.2,27.3,11111222
Amerada Hess,ioos:station:wmo:42907:1,2020-10-03T09:30:00Z,27.1318,-90.3386,20.2,27.4,11111222
Amerada Hess,ioos:station:wmo:42907:1,2020-10-03T09:41:00Z,27.1318,-90.3386,20.1,27.4,11111222
Amerada Hess,ioos:station:wmo:42907:1,2020-10-03T09:51:00Z,27.1318,-90.3386,20.2,27.4,11111222
Amerada Hess,ioos:station:wmo:42907:1,2020-10-03T10:01:00Z,27.1318,-90.3386,20.2,27.4,11111222
Amerada Hess,ioos:station:wmo:42907:1,2020-10-03T10:11:00Z,27.1318,-90.3386,20.1,27.4,11111222
Amerada Hess,ioos:station:wmo:42907:1,2020-10-03T10:21:00Z,27.1318,-90.3386,20.3,27.3,11111222
Amerada Hess,ioos:station:wmo:42907:1,2020-10-03T10:31:00Z,27.1318,-90.3386,20.4,27.3,11111222
Amerada Hess,ioos:station:wmo:42907:1,2020-10-03T10:41:00Z,27.1318,-90.3386,20.2,27.3,11111222
Amerada Hess,ioos:station:wmo:42907:1,2020-10-03T10:51:00Z,27.1318,-90.3386,20.1,27.3,11111222
Amerada Hess,ioos:station:wmo:42907:1,2020-10-03T11:01:00Z,27.1318,-90.3386,20.1,27.3,11111222
Amerada Hess,ioos:station:wmo:42907:1,2020-10-03T11:11:00Z,27.1318,-90.3386,20.1,27.3,11111222
Amerada Hess,ioos:station:wmo:42907:1,2020-10-03T11:21:00Z,27.1318,-90.3386,20.1,27.3,11111222
Amerada Hess,ioos:station:wmo:42907:1,2020-10-03T11:31:00Z,27.1318,-90.3386,20.2,27.3,11111222
Amerada Hess,ioos:station:wmo:42907:1,2020-10-03T11:41:00Z,27.1318,-90.3386,20.2,27.4,11111222
Amerada Hess,ioos:station:wmo:42907:1,2020-10-03T11:51:00Z,27.1318,-90.3386,20.4,27.4,11111222
Amerada Hess,ioos:station:wmo:42907:1,2020-10-03T12:01:00Z,27.1318,-90.3386,20.4,27.4,11111222
Amerada Hess,ioos:station:wmo:42907:1,2020-10-03T12:11:00Z,27.1318,-90.3386,20.4,27.4,11111222
Amerada Hess,ioos:station:wmo:42907:1,2020-10-03T12:21:00Z,27.1318,-90.3386,20.4,27.4,11111222
Amerada Hess,ioos:station:wmo:42907:1,2020-10-03T12:31:00Z,27.1318,-90.3386,20.4,27.4,11111222
Amerada Hess,ioos:station:wmo:42907:1,2020-10-03T12:41:00Z,27.1318,-90.3386,20.4,27.4,11111222
Amerada Hess,ioos:station:wmo:42907:1,2020-10-03T13:01:00Z,27.1318,-90.3386,20.3,27.4,11111222
Amerada Hess,ioos:station:wmo:42907:1,2020-10-03T13:11:00Z,27.1318,-90.3386,20.3,27.4,11111222
Amerada Hess,ioos:station:wmo:42907:1,2020-10-03T13:21:00Z,27.1318,-90.3386,20.3,27.4,11111222
Amerada Hess,ioos:station:wmo:42907:1,2020-10-03T13:31:00Z,27.1318,-90.3386,20.4,27.4,11111222
Amerada Hess,ioos:station:wmo:42907:1,2020-10-03T13:41:00Z,27.1318,-90.3386,20.5,27.4,11111222
Amerada Hess,ioos:station:wmo:42907:1,2020-10-03T13:51:00Z,27.1318,-90.3386,20.4,27.4,11111222
Amerada Hess,ioos:station:wmo:42907:1,2020-10-03T14:01:00Z,27.1318,-90.3386,19.9,27.4,11111222
Amerada Hess,ioos:station:wmo:42907:1,2020-10-03T14:11:00Z,27.1318,-90.3386,20.0,27.4,11111222
Amerada Hess,ioos:station:wmo:42907:1,2020-10-03T14:21:00Z,27.1318,-90.3386,20.3,27.4,11111222
Amerada Hess,ioos:station:wmo:42907:1,2020-10-03T14:41:00Z,27.1318,-90.3386,20.3,27.4,11111222
Amerada Hess,ioos:station:wmo:42907:1,2020-10-03T14:51:00Z,27.1318,-90.3386,20.3,27.4,11111222
Amerada Hess,ioos:station:wmo:42907:1,2020-10-03T15:01:00Z,27.1318,-90.3386,20.4,27.4,11111222
Amerada Hess,ioos:station:wmo:42907:1,2020-10-03T15:11:00Z,27.1318,-90.3386,20.3,27.4,11111222
Amerada Hess,ioos:station:wmo:42907:1,2020-10-03T15:21:00Z,27.1318,-90.3386,20.3,27.4,11111222
Amerada Hess,ioos:station:wmo:42907:1,2020-10-03T15:31:00Z,27.1318,-90.3386,20.2,27.4,11111222
Amerada Hess,ioos:station:wmo:42907:1,2020-10-03T15:41:00Z,27.1318,-90.3386,20.2,27.4,11111222
Amerada Hess,ioos:station:wmo:42907:1,2020-10-03T15:51:00Z,27.1318,-90.3386,20.2,27.4,11111222
Amerada Hess,ioos:station:wmo:42907:1,2020-10-03T16:01:00Z,27.1318,-90.3386,20.3,27.4,11111222
Amerada Hess,ioos:station:wmo:42907:1,2020-10-03T16:21:00Z,27.1318,-90.3386,20.3,27.3,11111222